Location: Baix
(44.7118°N, 4.7648°E)
Time: 15:12:54
(UTC+00:00)

A-11 Canister half - Pass Details

Date: 29 November 2020
Orbit: 1517 x 1683 km, 47.2° (Epoch: 15 January)

Event Time Altitude Azimuth Distance (km) Brightness Sun altitude
Rises 16:40:38 0° 292° (WNW) 4,914 12.4 -6.9°
Reaches altitude 10° 16:43:47 10° 290° (WNW) 3,936 11.9 -7.4°
Maximum altitude 16:53:49 68° 211° (SSW) 1,787 9.6 -9.0°
Drops below altitude 10° 17:03:48 10° 131° (SE) 3,918 10.9 -10.7°
Sets 17:06:57 0° 129° (SE) 4,891 11.3 -11.2°
